Regional Weather Roundup
Issued by NWS

Home | Current Version | Previous Version | Graphics & Text | Print | Product List | Glossary On
Versions: 1 2 3 4 5 6 7 8 9 10 11 12 13 14 15 16 17 18 19 20 21 22 23 24 25 26 27 28 29 30 31 32 33 34 35 36 37 38 39 40 41 42 43 44 45 46 47 48 49 50
650
ASUS44 KLIX 281401
RWRLA
LOUISIANA WEATHER ROUNDUP
NATIONAL WEATHER SERVICE NEW ORLEANS LA
900 AM CDT MON JUL 28 2014

NOTE: "FAIR" INDICATES FEW OR NO CLOUDS BELOW 12,000 FEET WITH NO
      SIGNIFICANT WEATHER AND/OR OBSTRUCTIONS TO VISIBILITY.
      SKY/WX - SKY CONDITION AND SIGNIFICANT WEATHER.
      TMP - AIR TEMPERATURE.    DP   - DEWPOINT TEMPERATURE.
      RH  - RELATIVE HUMIDITY.  PRES - PRESSURE.
      HX  - HEAT INDEX.         WCI  - WIND CHILL INDEX.

*  THESE STATIONS ARE NOT NWS OR FAA STATIONS AND ARE NOT UNDER
   NWS QUALITY CONTROL.

LAZ040-048-061>063-065-066-069-281500-
SOUTHEAST LOUISIANA

CITY           SKY/WX    TMP DP  RH WIND       PRES   REMARKS
N.O. AUDUBON     N/A     88  77  70 MISG        N/A  HX 101
N.O. INTL ARPT MOSUNNY   86  76  71 NW14      30.10R HX  96
N.O. LAKEFRONT MOSUNNY   85  77  77 W20       30.10R HX  95
N.O. DOWNTOWN* FAIR      86  73  66 W7        30.11R
SLIDELL        SUNNY     84  75  74 VRB6      30.08S
BATON ROUGE    MOSUNNY   83  76  79 W12       30.10S
BOOTHVILLE     MOSUNNY   85  78  80 NW8       30.11R HX  96
BELLE CHASSE   MOSUNNY   85  75  72 W8        30.09S
BOGALUSA*      FAIR      85  75  72 W8        30.09F
GALLIANO*      NOT AVBL
NEW ROADS*     FAIR      83  77  82 W8        30.11R
GONZALES*      PTSUNNY   84  79  86 W6        30.10F HX  96
HAMMOND*       SUNNY     86  75  70 W9        30.11S HX  95
HOUMA*         MOSUNNY   86  73  66 W7        30.11R
PORT FOURCHON* MOSUNNY   86  75  70 W12       30.12F HX  95

$$

LAZ041-044-053-054-281500-
SOUTHWEST LOUISIANA

CITY           SKY/WX    TMP DP  RH WIND       PRES   REMARKS
LAKE CHARLES   MOSUNNY   84  78  82 W5        30.11R HX  95
LAFAYETTE      NOT AVBL
PATTERSON      SUNNY     86  79  79 W8        30.16R HX  99
SALT POINT       N/A     88  78  72 VRB6      30.11R HX 101
NEW IBERIA     SUNNY     84  78  82 W9        30.12R HX  95
CHENAULT AIRPK MOSUNNY   84  75  74 CALM      30.11S

$$

LAZ027-028-281500-
CENTRAL LOUISIANA

CITY           SKY/WX    TMP DP  RH WIND       PRES   REMARKS
FORT POLK      SUNNY     82  75  79 W9        30.11R
ALEXANDRIA INT MOSUNNY   79  76  90 W5        30.08S
ALEXANDRIA     PTSUNNY   82  76  81 W5        30.10R

$$

LAZ001-002-281500-
NORTHWEST LOUISIANA

CITY           SKY/WX    TMP DP  RH WIND       PRES   REMARKS
SHREVEPORT     RAIN      80  76  87 W7        30.10R FOG
BARKSDALE AFB  LGT RAIN  80  75  86 S2        30.11R
DTN SHREVEPORT CLOUDY    81  75  82 CALM      30.11R

$$

LAZ014-016-281500-
NORTHEAST LOUISIANA

CITY           SKY/WX    TMP DP  RH WIND       PRES   REMARKS
MONROE         CLOUDY    77  74  90 E5        30.09S
TALLULAH       CLOUDY    78  76  93 W7        30.08R

$$




USA.gov is the U.S. government's official web portal to all federal, state and local government web resources and services.